Skip Page Navigation
NASA JPL Caltech
NASA Logo - Jet Propulsion Laboratory + View the NASA Portal
+ Near-Earth Object (NEO) Program
Search JPL
JPL Home Earth Solar System Stars & Galaxies Technology
JPL Solar System Dynamics
BODIES ORBITS EPHEMERIDES TOOLS PHYSICAL DATA DISCOVERY FAQ SITE MAP
JPL Small-Body Database Browser
Search: [ help ]  
308242 (2005 GO21)
Classification: Aten [NEO, PHA]          SPK-ID: 2308242
Ephemeris | Orbit Diagram | Orbital Elements | Physical Parameters | Discovery Circumstances | Close-Approach Data ]

[ show orbit diagram ]
Orbital Elements at Epoch 2456400.5 (2013-Apr-18.0) TDB
Reference: JPL 55 (heliocentric ecliptic J2000)
 Element Value Uncertainty (1-sigma)   Units 
e .3399033575334342 1.9536e-07  
a .7533075821016776 1.2381e-08 AU
q .4972558056899242 1.4838e-07 AU
i 24.92574641666005 1.7843e-05 deg
node 272.7069155281416 6.7639e-06 deg
peri 156.61014557 3.7503e-05 deg
M 311.9194988604801 7.7982e-05 deg
tp 2456432.395059725854
(2013-May-19.89505973)
5.2234e-05 JED
period 238.8124339217723
0.65
5.8876e-06
1.612e-08
d
yr
n 1.507459197530415 3.7164e-08 deg/d
Q 1.009359358513431 1.659e-08 AU
  Orbit Determination Parameters
   # obs. used (total)      131  
   # delay obs. used      5  
   # Doppler obs. used      2  
   data-arc span      2658 days (7.28 yr)  
   first obs. used      2005-04-01  
   last obs. used      2012-07-11  
   planetary ephem.      DE405  
   SB-pert. ephem.      SB405-CPV-2  
   condition code      0  
   fit RMS      .44187  
   data source      ORB  
   producer      Otto Matic  
   solution date      2013-Apr-29 15:41:34  

Additional Information
 Earth MOID = .0436676 AU 
 T_jup = 7.556 
[ show covariance matrix ]

Ephemeris | Orbit Diagram | Orbital Elements | Physical Parameters | Discovery Circumstances | Close-Approach Data ]

Physical Parameter Table
Parameter Symbol Value Units Sigma Reference Notes
absolute magnitude H 16.397 mag .36999 37 autocmod 2.5b
rotation period rot_per 11.00 h n/a Asteroid Lightcurve DataBase (Rev. 2013-May-01) Result based on less than full coverage, so that the period may be wrong by 30 percent or so.
Published Reference List:
[Benner, L.A.M. http://echo.jpl.nasa.gov/asteroids/2005GO21/2 005GO21_planning.html]
[Higgins, D.J. (2012) http://www.david-higgins.com/Astronomy/astero id/lightcurves.htm]

308242 (2005 GO21)          Discovered 2005-Apr-01 by Siding Spring Survey at Siding Spring (E12)
Reference: 20111210/Numbers.arcLast Updated: 2011-12-12

[ hide close-approach data ]
Close-Approach Data   ...sorted by Date/Time (TDB)
Date/Time (TDB) Time Uncertainty
(days_HH:MM)
Body Nominal Distance (AU) Minimum Distance (AU) Maximum Distance (AU) V-relative (km/s) V-infinity (km/s) JD (TDB) Time Uncertainty (minutes) Semi-major axis (km) Semi-minor axis (km) range-LOV angle (deg) N-sigma BP Orbit Ref. Reference Modified
1900-Dec-25 03:55 00:02 Earth 0.474006652740375 0.474005598864216 0.474007707365288 23.9632704100389 23.963035833835 2415378.662862109 1.902554430569 591.727854085302 16.8306884002323 -88.6475674642388 3818889.95437008 T 55 CATAB v2.0c-linF95 2013-Apr-29 15:41:34 2013-Apr-29 15:41
1902-Dec-04 15:45 00:02 Earth 0.499849727792932 0.499847974248543 0.499851481616459 24.4072681602352 24.4070497587113 2416088.156462853 1.90662092017067 556.249407767011 21.9097180503257 -80.3613185744525 3060632.75077545 T 55 CATAB v2.0c-linF95 2013-Apr-29 15:41:34 2013-Apr-29 15:41
1908-Jun-10 20:16 < 00:01 Earth 0.393585523469208 0.393575343146647 0.393595703818744 16.199827307707 16.1994094114758 2418103.344357153 0.11432929982578 522.504711392834 19.0887351878514 17.2288181661028 757598.706068039 T 55 CATAB v2.0c-linF95 2013-Apr-29 15:41:34 2013-Apr-29 15:41
1910-Jun-19 07:29 < 00:01 Earth 0.203459912720035 0.203449673314821 0.203470152083169 12.778300772251 12.7772758809412 2418841.811585852 0.147723418578303 403.277295729178 10.8563297415403 0.405640147279871 58670.429771405 T 55 CATAB v2.0c-linF95 2013-Apr-29 15:41:34 2013-Apr-29 15:41
1912-Jun-21 08:50 < 00:01 Earth 0.0451556673144812 0.0451539419533794 0.0451573949676499 13.3599806371113 13.3555632438442 2419574.867896690 0.0427581077705268 397.390074205109 1.39240050878308 79.2366328622478 3656183.7515715 T 55 CATAB v2.0c-linF95 2013-Apr-29 15:41:34 2013-Apr-29 15:41
1914-Feb-06 20:56 00:01 Earth 0.455563213391774 0.455559317578818 0.455567109486474 18.495978241518 18.495662020951 2420170.371971730 1.48665977725647 512.284393447381 8.24280707186053 71.0661267525839 6698208.92625319 T 55 CATAB v2.0c-linF95 2013-Apr-29 15:41:34 2013-Apr-29 15:41
1914-Jun-17 11:21 < 00:01 Earth 0.227829224655291 0.227817886295752 0.227840562976878 17.6393253551753 17.6386623313829 2420300.973208434 0.149983147556499 532.580579104946 7.81784656823904 7.50265533712771 483432.501416203 T 55 CATAB v2.0c-linF95 2013-Apr-29 15:41:34 2013-Apr-29 15:41
1916-Jan-14 18:19 00:02 Earth 0.459612408317907 0.459610960890608 0.459613856039995 22.1767100419569 22.1764486296374 2420877.263417035 1.62343163242347 529.922028144391 10.7354237221686 83.1054573417445 5680926.7941864 T 55 CATAB v2.0c-linF95 2013-Apr-29 15:41:34 2013-Apr-29 15:41
1916-Jun-09 12:33 < 00:01 Earth 0.4411639530163 0.441151954661334 0.441175951383905 23.5184928711054 23.5182360650748 2421024.023004493 0.158263152818525 607.25536715588 11.8375287361371 3.13851524849517 292252.958952278 T 55 CATAB v2.0c-linF95 2013-Apr-29 15:41:34 2013-Apr-29 15:41
1917-Dec-23 18:03 00:02 Earth 0.475793287186893 0.47579200433374 0.475794570480148 24.0752473067596 24.0750146983646 2421586.252428062 1.77417069484448 549.095624926337 16.4173637832092 -87.3752250292795 3930009.81317025 T 55 CATAB v2.0c-linF95 2013-Apr-29 15:41:34 2013-Apr-29 15:41
1925-Jun-11 22:16 < 00:01 Earth 0.373884485146296 0.373871084280115 0.37389788603856 15.7039166599295 15.7034628508263 2424313.427773936 0.153954320801853 672.969243521184 18.7873734254198 16.0263153151112 673140.572322326 T 55 CATAB v2.0c-linF95 2013-Apr-29 15:41:34 2013-Apr-29 15:41
1927-Jun-20 07:49 < 00:01 Earth 0.181803172265899 0.181788519918972 0.181817824548853 12.6260242687172 12.624863450428 2425051.825627515 0.185760279844244 565.76714277748 9.51053985197364 -2.89153883694978 113357.548221387 T 55 CATAB v2.0c-linF95 2013-Apr-29 15:41:34 2013-Apr-29 15:41
1929-Mar-08 10:19 00:02 Earth 0.451828746167607 0.451811664350006 0.451845828633821 11.0725502056966 11.0720176055484 2425678.929634911 2.32602547214075 850.038520314888 7.42742851080535 45.0669490110714 4540389.51302796 T 55 CATAB v2.0c-linF95 2013-Apr-29 15:41:34 2013-Apr-29 15:41
1929-Jun-21 10:46 < 00:01 Earth 0.0544613811547605 0.0544517829775416 0.0544709823091532 13.6941381034648 13.6905649994253 2425783.948877687 0.0945115928448586 634.715512313517 2.1372731002984 52.3815304510003 2339408.38991447 T 55 CATAB v2.0c-linF95 2013-Apr-29 15:41:34 2013-Apr-29 15:41
1931-Feb-04 04:31 00:02 Earth 0.455854659835486 0.455849084488847 0.455860235852799 19.0696409171647 19.069334405554 2426376.688388283 2.28028701861379 790.61898513342 8.61165060238851 72.3349684505105 6514135.21627715 T 55 CATAB v2.0c-linF95 2013-Apr-29 15:41:34 2013-Apr-29 15:41
1931-Jun-17 00:24 < 00:01 Earth 0.253617519612125 0.253600146178173 0.253634892970355 18.2913712290139 18.290796856488 2426509.516357684 0.23076359724785 825.544345532743 8.37940073223571 6.14730928970643 415156.792934175 T 55 CATAB v2.0c-linF95 2013-Apr-29 15:41:34 2013-Apr-29 15:41
1933-Jan-11 05:59 00:02 Earth 0.461167575494667 0.461165732773776 0.46116941889462 22.5252088350188 22.5249523350976 2427083.749558638 2.46155624214615 803.330127799771 11.7287154601199 84.1738619978565 5244515.1382468 T 55 CATAB v2.0c-linF95 2013-Apr-29 15:41:34 2013-Apr-29 15:41
1933-Jun-08 17:08 < 00:01 Earth 0.46967084799689 0.469652895693299 0.469688800336254 24.3613584849275 24.3611256118287 2427232.214007547 0.232261741572368 912.693724182287 12.2610228695425 2.62539173333236 248235.309468957 T 55 CATAB v2.0c-linF95 2013-Apr-29 15:41:34 2013-Apr-29 15:41
1934-Dec-21 01:01 00:03 Earth 0.479188176984668 0.479186080039181 0.479190274695797 24.2339504774974 24.2337210295907 2427792.542147073 2.66535922507408 819.398876051114 17.2726819694564 -86.2886868676811 3762445.2467909 T 55 CATAB v2.0c-linF95 2013-Apr-29 15:41:34 2013-Apr-29 15:41
1942-Jun-13 15:51 < 00:01 Earth 0.338443352124199 0.338423997684773 0.33846270654406 14.9093723046715 14.9088442550967 2430524.160486401 0.243723584265146 933.119414987455 17.6484107809353 14.0396063032454 558702.051638632 T 55 CATAB v2.0c-linF95 2013-Apr-29 15:41:34 2013-Apr-29 15:41
1944-Jun-20 15:33 < 00:01 Earth 0.142235212811966 0.142214568538966 0.142255857160544 12.4927230065502 12.4912234108622 2431262.147771964 0.19759276092061 783.838462076917 7.05342762323886 -10.2768551337507 401244.498477441 T 55 CATAB v2.0c-linF95 2013-Apr-29 15:41:34 2013-Apr-29 15:41
1946-Feb-27 03:50 00:03 Earth 0.454750351491295 0.454734150134884 0.454766554106786 13.9431770314254 13.9427568042697 2431878.659399817 3.07884175369849 1125.76609457374 9.66400426472128 55.9045734928177 4553303.7741092 T 55 CATAB v2.0c-linF95 2013-Apr-29 15:41:34 2013-Apr-29 15:41
1946-Jun-21 02:31 < 00:01 Earth 0.0893155608807936 0.0892953352040521 0.0893357874397263 14.4596417502488 14.4575784678305 2431992.604582328 0.195613299156731 938.089402684153 3.70292586561012 26.4988526779286 1273643.54293475 T 55 CATAB v2.0c-linF95 2013-Apr-29 15:41:34 2013-Apr-29 15:41
1948-Jan-30 04:30 00:03 Earth 0.456303426707091 0.456297084022324 0.456309770577674 20.0018859985331 20.0015940603872 2432580.687704978 3.05884025001897 1050.86065240919 9.25194716014903 74.7629810027509 6218186.44376581 T 55 CATAB v2.0c-linF95 2013-Apr-29 15:41:34 2013-Apr-29 15:41
1948-Jun-14 19:05 < 00:01 Earth 0.300630909881386 0.300607883577914 0.30065393610576 19.5180157104663 19.5175616140112 2432717.295004886 0.31019680434786 1116.88295921602 9.3438456361289 4.62110140848602 337881.497418611 T 55 CATAB v2.0c-linF95 2013-Apr-29 15:41:34 2013-Apr-29 15:41
